�������l�o���
Date,Time,MP-1(��Sv/h),MP-2(��Sv/h),MP-3(��Sv/h),MP-4(��Sv/h),MP-5(��Sv/h),MP-6(��Sv/h),MP-7(��Sv/h),MP-8(��Sv/h),����,����(m/s),���J
2017/02/21,00:00,1.070,1.786,1.191,2.066,1.441,0.564,1.030,0.953,��,13.0,��
2017/02/21,00:10,1.068,1.789,1.188,2.064,1.441,0.562,1.030,0.955,��,9.8,��
2017/02/21,00:20,1.069,1.789,1.190,2.065,1.438,0.562,1.029,0.955,���k��,13.8,�L
2017/02/21,00:30,1.072,1.790,1.190,2.069,1.442,0.563,1.031,0.956,���k��,13.3,�L
2017/02/21,00:40,1.070,1.790,1.188,2.067,1.443,0.562,1.029,0.955,��,9.5,��
2017/02/21,00:50,1.067,1.786,1.190,2.064,1.443,0.561,1.029,0.952,��,7.2,��
2017/02/21,01:00,1.071,1.787,1.191,2.067,1.441,0.563,1.031,0.953,��,7.0,��
2017/02/21,01:10,1.069,1.784,1.190,2.066,1.440,0.562,1.028,0.952,���k��,9.7,��
2017/02/21,01:20,1.069,1.785,1.189,2.066,1.438,0.563,1.029,0.952,���k��,8.0,��
2017/02/21,01:30,1.069,1.787,1.189,2.066,1.437,0.564,1.029,0.952,�k��,6.9,��
2017/02/21,01:40,1.068,1.786,1.190,2.067,1.439,0.562,1.029,0.952,���k��,5.8,��
2017/02/21,01:50,1.070,1.785,1.189,2.064,1.438,0.562,1.029,0.954,���k��,5.1,��
2017/02/21,02:00,1.068,1.783,1.191,2.064,1.441,0.563,1.029,0.954,�k��,8.7,��
2017/02/21,02:10,1.069,1.785,1.187,2.065,1.439,0.562,1.028,0.954,�k��,7.7,��
2017/02/21,02:20,1.067,1.785,1.187,2.065,1.437,0.562,1.028,0.955,�k��,9.3,�L
2017/02/21,02:30,1.066,1.781,1.191,2.065,1.437,0.563,1.029,0.953,�k��,9.9,�L
2017/02/21,02:40,1.065,1.785,1.188,2.065,1.436,0.561,1.029,0.953,�k��,11.3,�L
2017/02/21,02:50,1.066,1.785,1.188,2.061,1.440,0.562,1.027,0.951,�k��,9.2,�L
2017/02/21,03:00,1.065,1.784,1.190,2.062,1.439,0.562,1.029,0.952,�k��,8.3,�L
2017/02/21,03:10,1.067,1.783,1.187,2.064,1.437,0.562,1.028,0.953,�k��,7.8,�L
2017/02/21,03:20,1.066,1.780,1.189,2.061,1.437,0.562,1.026,0.953,�k��,8.5,�L
2017/02/21,03:30,1.064,1.782,1.187,2.062,1.437,0.562,1.028,0.952,�k��,8.9,�L
2017/02/21,03:40,1.067,1.780,1.186,2.062,1.437,0.562,1.027,0.952,���k��,10.9,�L
2017/02/21,03:50,1.063,1.782,1.187,2.060,1.436,0.563,1.026,0.951,���k��,12.1,��
2017/02/21,04:00,1.064,1.778,1.187,2.059,1.436,0.562,1.027,0.952,���k��,11.9,��
2017/02/21,04:10,1.062,1.781,1.184,2.060,1.431,0.562,1.027,0.953,���k��,11.3,��
2017/02/21,04:20,1.063,1.779,1.187,2.058,1.429,0.560,1.026,0.953,���k��,10.2,��
2017/02/21,04:30,1.063,1.780,1.185,2.059,1.432,0.560,1.025,0.952,���k��,9.8,��
2017/02/21,04:40,1.058,1.778,1.184,2.058,1.431,0.559,1.026,0.950,�k��,9.8,��
2017/02/21,04:50,1.062,1.778,1.184,2.059,1.434,0.559,1.026,0.952,�k��,11.6,��
2017/02/21,05:00,1.061,1.777,1.181,2.058,1.433,0.558,1.026,0.950,���k��,12.1,��
2017/02/21,05:10,1.062,1.779,1.180,2.057,1.435,0.560,1.023,0.952,�k��,10.1,��
2017/02/21,05:20,1.061,1.778,1.184,2.058,1.434,0.559,1.026,0.951,���k��,10.5,��
2017/02/21,05:30,1.063,1.780,1.183,2.058,1.435,0.558,1.026,0.950,�k��,9.9,��
2017/02/21,05:40,1.059,1.780,1.180,2.058,1.432,0.559,1.024,0.951,�k��,11.0,��
2017/02/21,05:50,1.059,1.777,1.182,2.059,1.432,0.559,1.026,0.952,�k��,8.5,��
2017/02/21,06:00,1.061,1.778,1.186,2.060,1.431,0.559,1.026,0.950,�k��,9.3,��
2017/02/21,06:10,1.061,1.779,1.183,2.057,1.429,0.559,1.023,0.952,�k��,9.3,��
2017/02/21,06:20,1.060,1.779,1.182,2.058,1.432,0.558,1.026,0.952,�k�k��,8.3,��
2017/02/21,06:30,1.059,1.776,1.184,2.059,1.431,0.559,1.026,0.952,�k�k��,10.9,��
2017/02/21,06:40,1.061,1.776,1.183,2.059,1.429,0.557,1.025,0.952,�k��,10.3,��
2017/02/21,06:50,1.059,1.778,1.181,2.059,1.431,0.559,1.024,0.951,�k��,9.9,��
2017/02/21,07:00,1.059,1.777,1.183,2.061,1.432,0.558,1.025,0.950,�k��,9.6,��
2017/02/21,07:10,1.058,1.777,1.184,2.057,1.432,0.559,1.024,0.952,�k��,9.9,��
2017/02/21,07:20,1.060,1.778,1.182,2.055,1.433,0.558,1.024,0.949,�k��,6.5,��
2017/02/21,07:30,1.060,1.780,1.183,2.060,1.434,0.556,1.025,0.950,�k��,7.6,��
2017/02/21,07:40,1.060,1.778,1.183,2.058,1.434,0.556,1.023,0.950,�k��,8.0,��
2017/02/21,07:50,1.060,1.782,1.182,2.059,1.434,0.558,1.025,0.952,�k�k��,8.4,��
2017/02/21,08:00,1.061,1.777,1.179,2.058,1.429,0.556,1.024,0.951,�k��,6.9,��
2017/02/21,08:10,1.060,1.782,1.181,2.057,1.429,0.558,1.025,0.949,�k�k��,6.5,��
2017/02/21,08:20,1.062,1.779,1.183,2.059,1.432,0.557,1.023,0.951,�k��,8.1,��
2017/02/21,08:30,1.060,1.780,1.184,2.059,1.432,0.558,1.024,0.949,�k��,8.7,��
2017/02/21,08:40,1.063,1.781,1.184,2.059,1.435,0.556,1.027,0.951,�k��,9.4,��
2017/02/21,08:50,1.061,1.781,1.184,2.063,1.436,0.556,1.025,0.951,�k��,7.4,��
2017/02/21,09:00,1.060,1.782,1.184,2.058,1.440,0.557,1.025,0.951,�k��,12.5,��
2017/02/21,09:10,1.059,1.782,1.185,2.063,1.447,0.559,1.024,0.950,�k��,12.7,��
2017/02/21,09:20,1.061,1.783,1.187,2.060,1.442,0.558,1.023,0.950,���k��,14.4,��
2017/02/21,09:30,1.061,1.782,1.185,2.060,1.435,0.558,1.025,0.951,���k��,8.9,��
2017/02/21,09:40,1.063,1.787,1.185,2.058,1.426,0.558,1.026,0.952,���k��,8.8,��
2017/02/21,09:50,1.064,1.784,1.179,2.062,1.424,0.558,1.024,0.953,�k��,12.2,��
2017/02/21,10:00,1.064,1.783,1.182,2.058,1.436,0.556,1.025,0.953,���k��,11.8,��
2017/02/21,10:10,1.063,1.783,1.183,2.059,1.435,0.558,1.026,0.951,���k��,10.3,��
2017/02/21,10:20,1.062,1.781,1.183,2.061,1.435,0.559,1.027,0.951,���k��,11.8,��
2017/02/21,10:30,1.064,1.780,1.180,2.063,1.436,0.557,1.024,0.950,���k��,12.8,��
2017/02/21,10:40,1.063,1.779,1.183,2.061,1.437,0.558,1.025,0.952,���k��,11.0,��
2017/02/21,10:50,1.062,1.776,1.184,2.064,1.439,0.558,1.026,0.950,���k��,11.3,��
2017/02/21,11:00,1.061,-,1.185,2.062,1.437,0.558,1.025,0.951,���k��,18.5,��
2017/02/21,11:10,1.062,-,1.185,2.063,1.439,0.556,1.024,0.953,���k��,9.9,��
2017/02/21,11:20,1.063,-,1.180,2.060,1.438,0.558,1.025,0.952,�k��,12.0,��
2017/02/21,11:30,1.063,-,1.182,2.062,1.439,0.556,1.024,0.951,�k��,11.0,��
2017/02/21,11:40,1.062,-,1.182,2.063,1.439,0.557,1.024,0.953,���k��,14.3,��
2017/02/21,11:50,1.062,-,1.179,2.064,1.439,0.557,1.025,0.952,�k��,13.2,��
2017/02/21,12:00,1.064,-,1.178,2.065,1.436,0.557,1.023,0.951,�k��,11.3,��
2017/02/21,12:10,1.062,-,1.181,2.068,1.440,0.559,1.026,0.951,���k��,9.3,��
2017/02/21,12:20,1.063,-,1.178,2.065,1.440,0.558,1.024,0.950,�k��,10.7,��
2017/02/21,12:30,1.066,-,1.181,2.065,1.442,0.556,1.026,0.954,���k��,10.0,��
2017/02/21,12:40,1.066,-,1.183,2.061,1.442,0.558,1.022,0.952,�k��,15.3,��
2017/02/21,12:50,1.064,-,1.184,2.066,1.440,0.558,1.024,0.953,�k��,16.4,��
2017/02/21,13:00,1.065,-,1.182,2.064,1.441,0.559,1.024,0.951,�k��,15.5,��
2017/02/21,13:10,1.064,-,1.180,2.062,1.442,0.558,1.023,0.954,�k��,15.8,��
2017/02/21,13:20,1.068,-,1.180,2.065,1.440,0.559,1.022,0.953,�k��,11.7,��
2017/02/21,13:30,1.066,-,1.183,2.067,1.439,0.559,1.024,0.953,�k��,13.0,��
2017/02/21,13:40,1.068,-,1.181,2.066,1.441,0.557,1.023,0.952,���k��,12.1,��
2017/02/21,13:50,1.066,-,1.184,2.067,1.442,0.556,1.023,0.952,�k��,10.6,��
2017/02/21,14:00,1.068,-,1.181,2.064,1.440,0.558,1.023,0.952,�k��,14.4,�L
2017/02/21,14:10,1.066,-,1.179,2.064,1.442,0.558,1.024,0.952,�k��,13.9,��
2017/02/21,14:20,1.063,-,1.185,2.066,1.439,0.557,1.022,0.952,�k��,10.4,��
2017/02/21,14:30,1.063,-,1.183,2.065,1.440,0.557,1.024,0.952,�k��,11.3,��
2017/02/21,14:40,1.065,-,1.183,2.064,1.442,0.557,1.022,0.951,�k��,10.8,��
2017/02/21,14:50,1.065,-,1.181,2.064,1.440,0.554,1.025,0.951,�k��,8.0,��
2017/02/21,15:00,1.065,-,1.182,2.063,1.440,0.555,1.023,0.950,�k��,8.6,��
2017/02/21,15:10,1.064,-,1.181,2.064,1.440,0.555,1.023,0.952,�k��,7.6,��
2017/02/21,15:20,1.063,-,1.180,2.062,1.443,0.555,1.026,0.952,�k��,8.8,��
2017/02/21,15:30,1.064,-,1.183,2.065,1.443,0.556,1.025,0.952,�k��,8.5,��
2017/02/21,15:40,1.064,1.786,1.185,2.065,1.443,0.558,1.025,0.951,�k��,9.7,��
2017/02/21,15:50,1.064,1.790,1.185,2.064,1.441,0.556,1.024,0.949,�k��,10.9,��
2017/02/21,16:00,1.064,1.785,1.183,2.065,1.442,0.557,1.024,0.950,�k��,11.6,��
2017/02/21,16:10,1.063,1.785,1.183,2.064,1.444,0.556,1.024,0.951,�k��,11.9,��
2017/02/21,16:20,1.062,1.789,1.182,2.064,1.442,0.556,1.023,0.950,�k��,9.7,��
2017/02/21,16:30,1.063,1.786,1.183,2.067,1.442,0.556,1.025,0.950,�k��,8.5,��
2017/02/21,16:40,1.061,1.790,1.182,2.062,1.440,0.554,1.025,0.951,�k��,11.6,��
2017/02/21,16:50,1.062,1.787,1.179,2.061,1.440,0.554,1.023,0.950,�k��,11.6,��
2017/02/21,17:00,1.059,1.788,1.181,2.066,1.438,0.553,1.025,0.949,�k��,11.1,��
2017/02/21,17:10,1.059,1.789,1.181,2.064,1.441,0.554,1.022,0.949,�k��,11.3,��
2017/02/21,17:20,1.059,1.786,1.181,2.062,1.439,0.552,1.022,0.951,�k��,10.4,��
2017/02/21,17:30,1.060,1.783,1.181,2.062,1.436,0.553,1.020,0.950,�k��,9.9,��
2017/02/21,17:40,1.061,1.782,1.181,2.060,1.439,0.554,1.021,0.950,�k��,10.9,��
2017/02/21,17:50,1.061,1.781,1.178,2.060,1.437,0.553,1.022,0.950,�k��,10.7,��
2017/02/21,18:00,1.059,1.786,1.179,2.064,1.437,0.553,1.025,0.948,�k�k��,11.1,��
2017/02/21,18:10,1.058,1.783,1.181,2.062,1.435,0.554,1.024,0.949,�k�k��,10.2,��
2017/02/21,18:20,1.057,1.788,1.181,2.064,1.437,0.554,1.024,0.949,�k��,9.6,��
2017/02/21,18:30,1.061,1.784,1.180,2.061,1.439,0.554,1.019,0.949,�k��,10.6,��
2017/02/21,18:40,1.057,1.784,1.177,2.058,1.438,0.554,1.021,0.949,�k��,10.9,��
2017/02/21,18:50,1.060,1.784,1.182,2.060,1.435,0.553,1.023,0.949,�k��,10.6,��
2017/02/21,19:00,1.061,1.784,1.181,2.061,1.437,0.555,1.021,0.947,�k��,11.7,��
2017/02/21,19:10,1.059,1.784,1.180,2.061,1.438,0.553,1.020,0.949,�k��,12.2,��
2017/02/21,19:20,1.061,1.785,1.181,2.063,1.439,0.555,1.023,0.949,�k��,11.6,��
2017/02/21,19:30,1.057,1.785,1.179,2.064,1.438,0.553,1.021,0.951,�k��,13.1,��
2017/02/21,19:40,1.058,1.784,1.178,2.060,1.439,0.555,1.018,0.950,�k��,10.7,��
2017/02/21,19:50,1.060,1.786,1.181,2.059,1.440,0.553,1.019,0.949,�k��,10.9,��
2017/02/21,20:00,1.059,1.785,1.180,2.062,1.437,0.555,1.019,0.951,�k�k��,10.0,��
2017/02/21,20:10,1.060,1.786,1.182,2.059,1.438,0.555,1.017,0.949,�k�k��,9.6,��
2017/02/21,20:20,1.062,1.785,1.181,2.065,1.436,0.556,1.022,0.949,�k�k��,9.8,��
2017/02/21,20:30,1.058,1.784,1.181,2.064,1.440,0.557,1.022,0.948,�k�k��,10.4,��
2017/02/21,20:40,1.058,1.783,1.183,2.059,1.434,0.555,1.023,0.949,�k��,8.7,��
2017/02/21,20:50,1.060,1.786,1.182,2.066,1.439,0.554,1.022,0.950,�k��,11.4,��
2017/02/21,21:00,1.058,1.782,1.182,2.062,1.436,0.555,1.021,0.951,�k�k��,11.0,��
2017/02/21,21:10,1.059,1.785,1.182,2.064,1.437,0.556,1.022,0.949,�k�k��,8.7,��
2017/02/21,21:20,1.060,1.785,1.182,2.060,1.437,0.557,1.021,0.947,�k��,7.9,��
2017/02/21,21:30,1.059,1.786,1.181,2.059,1.438,0.555,1.022,0.949,�k��,8.3,��
2017/02/21,21:40,1.057,1.786,1.180,2.060,1.438,0.556,1.022,0.949,�k��,7.5,��
2017/02/21,21:50,1.059,1.785,1.183,2.063,1.438,0.554,1.024,0.948,�k��,6.6,��
2017/02/21,22:00,1.061,1.788,1.183,2.063,1.438,0.555,1.021,0.948,�k�k��,7.2,��
2017/02/21,22:10,1.059,1.786,1.180,2.063,1.438,0.556,1.021,0.946,�k��,3.8,��
2017/02/21,22:20,1.057,1.784,1.180,2.062,1.440,0.556,1.020,0.947,�k�k��,3.1,��
2017/02/21,22:30,1.059,1.784,1.180,2.062,1.435,0.556,1.024,0.949,�k�k��,2.3,��
2017/02/21,22:40,1.058,1.780,1.181,2.060,1.436,0.556,1.022,0.949,�k��,4.9,��
2017/02/21,22:50,1.058,1.783,1.181,2.059,1.436,0.556,1.021,0.949,�k��,6.3,��
2017/02/21,23:00,1.057,1.781,1.180,2.062,1.441,0.555,1.022,0.946,�k��,5.6,��
2017/02/21,23:10,1.059,1.782,1.181,2.061,1.438,0.555,1.021,0.948,���k��,2.6,��
2017/02/21,23:20,1.056,1.786,1.183,2.058,1.440,0.556,1.020,0.947,��쐼,3.2,��
2017/02/21,23:30,1.056,1.782,1.180,2.063,1.440,0.554,1.021,0.949,�쐼,2.6,��
2017/02/21,23:40,1.058,1.784,1.183,2.060,1.438,0.554,1.022,0.946,���쐼,2.8,��
2017/02/21,23:50,1.058,1.784,1.180,2.058,1.438,0.554,1.021,0.947,�쐼,3.3,��
